Probability
0 0 0 0 0 0 0 0 0 0 0 0 0 0 0 0 0 0 0 0 0 0 0 0 0 0 0 0 0 0 0 0 0 0 0 0 0 0 0 0 0 0 0 0
0 0 0 0 0 0 0 0 0 0 0 0 0 0 0 0 0 0 0 0 0 0 0 0 0 0 0 0 0 0 0 0 0 0 0 0 0 0 0 0 0 0 0 0
0 0 0 0 0 0 0 0 0 0 0 0 0 0 0 0 0 0 0 0 0 0 0 0 0 0 0 0 0 0 0 0 0 0 0 0 0 0 0 0 0 0 0 0
0 0 0 0 0 0 0 0 0 0 0 0 0 0 0 0 0 0 0 0 0 0 0 0 0 0 0 0 0 0 0 0 0 0 0 0 0 0 0 0 0 0 0 0
0 0 0 0 0 0 0 0 0 0 0 0 0 0 0 0 0 0 0 0 0 0 0 0 0 0 0 0 0 0 0 0 0 0 0 0 0 0 0 0 0 0 0 0
0 0 0 0 0 0 0 0 0 0 0 0 0 0 0 0 0 0 0 0 0 0 0 0 0 0 0 0 0 0 0 0 0 0 0 0 0 0 0 0 0 0 0 0
0 0 0 0 0 0 0 0 0 0 0 0 0 0 0 0 0 0 0 0 0 0 0 0 0 0 0 0 0 0 0 0 0 0 0 0 0 0 0 0 0 0 0 0
0 0 0 0 0 0 0 0 0 0 0 0 0 0 0 0 0 0 0 0 0 0 0 0 0 0 0 0 0 0 0 0 0 0 0 0 0 0 0 0 0 0 0 0
0 0 0 0 0 0 0 0 0 0 0 0 0 0 0 0 0 0 0 0 0 0 0 0 0 0 0 0 0 0 0 0 0 0 0 0 0 0 0 0 0 0 0 0
0 0 0 0 0 0 0 0 0 0 0 0 0 0 0 0 0 0 0 0 0 0 0 0 0 0 0 0 0 0 0 0 0 0 0 0 0 0 0 0 0 0 0 0
0 0 0 0 0 0 0 0 0 0 0 0 0 0 0 0 0 0 0 0 0 0 0 0 0 0 0 0 0 0 0 0 0 0 0 0 0 0 0 0 0 0 0 0
0 0 0 0 0 0 0 0 0 0 0 0 0 0 0 0 0 0 0 0 0 0 0 0 0 0 0 0 0 0 0 0 0 0 0 0 0 0 0 0 0 0 0 0
0 0 0 0 0 0 0 0 0 0 0 0 0 0 0 0 0 0 0 0 0 0 0 0 0 0 0 0 0 0 0 0 0 0 0 0 0 0 0 0 0 0 0 0
0 0 0 0 0 0 0 0 0 0 0 0 0 0 0 0 0 0 0 0 0 0 0 0 0 0 0 0 0 0 0 0 0 0 0 0 0 0 0 0 0 0 0 0
0 0 0 0 0 0 0 0 0 0 0 0 0 0 0 0 0 0 0 0 0 0 0 0 0 0 0 0 0 0 0 0 0 0 0 0 0 0 0 0 0 0 0 0
0 0 0 0 0 0 0 0 0 0 0 0 0 0 0 0 0 0 0 0 0 0 0 0 0 0 0 0 0 0 0 0 0 0 0 0 0 0 0 0 0 0 0 0
0 0 0 0 0 0 0 0 0 0 0 0 0 0 0 0 0 0 0 0 0 0 0 0 0 0 0 0 0 0 0 0 0 0 0 0 0 0 0 0 0 0 0 0
0 0 0 0 0 0 0 0 0 0 0 0 0 0 0 0 0 0 0 0 0 0 0 0 0 0 0 0 0 0 0 0 0 0 0 0 0 0 0 0 0 0 0 0
0 0 0 0 0 0 0 0 0 0 0 0 0 0 0 0 0 0 0 0 0 0 0 0 0 0 0 0 0 0 0 0 0 0 0 0 0 0 0 0 0 0 0 0
0 0 0 0 0 0 0 0 0 0 0 0 0 0 0 0 0 0 0 0 0 0 0 0 0 0 0 0 0 0 0 0 0 0 0 0 0 0 0 0 0 0 0 0
0 0 0 0 0 0 0 0 0 0 0 0 0 0 0 0 0 0 0 0 0 0 0 0 0 0 0 0 0 0 0 0 0 0 0 0 0 0 0 0 0 0 0 0
0 0 0 0 0 0 0 0 0 0 0 0 0 0 0 0 0 0 0 0 0 0 0 0 0 0 0 0 0 0 0 0 0 0 0 0 0 0 0 0 0 0 0 0
0 0 0 0 0 0 0 0 0 0 0 0 0 0 0 0 0 0 0 0 0 0 0 0 0 0 0 0 0 0 0 0 0 0 0 0 0 0 0 0 0 0 0 0
0 0 0 0 0 0 0 0 0 0 0 0 0 0 0 0 0 0 0 0 0 0 0 0 0 0 0 0 0 0 0 0 0 0 0 0 0 0 0 0 0 0 0 0
0 0 0 0 0 0 0 0 0 0 0 0 0 0 0 0 0 0 0 0 0 0 0 0 0 0 0 0 0 0 0 0 0 0 0 0 0 0 0 0 0 0 0 0
0 0 0 0 0 0 0 0 0 0 0 0 0 0 0 0 0 0 0 0 0 0 0 0 0 0 0 0 0 0 0 0 0 0 0 0 0 0 0 0 0 0 0 0
0 0 0 0 0 0 0 0 0 0 0 0 0 0 0 0 0 0 0 0 0 0 0 0 0 0 0 0 0 0 0 0 0 0 0 0 0 0 0 0 0 0 0 0
Height
5833 5834 5835 5836 5836 5837 5837 5838 5839 5839 5840 5841 5841 5841 5841 5841 5842 5842 5843 5844 5845 5846 5847 5848 5849 5850 5851 5852 5852 5853 5853 5854 5855 5855 5855 5856 5856 5856 5856 5855 5855 5854 5854 5853
5830 5831 5832 5832 5833 5834 5835 5835 5836 5837 5838 5838 5838 5839 5839 5839 5840 5840 5841 5842 5843 5844 5845 5846 5847 5848 5848 5849 5849 5850 5850 5851 5851 5852 5852 5852 5852 5852 5852 5852 5851 5850 5850 5849
5826 5827 5828 5830 5831 5831 5832 5833 5834 5834 5836 5836 5836 5836 5837 5837 5837 5838 5839 5839 5840 5841 5842 5843 5844 5845 5845 5846 5846 5847 5847 5847 5848 5848 5848 5848 5848 5848 5848 5847 5847 5846 5845 5845
5822 5824 5825 5829 5828 5829 5829 5830 5831 5831 5832 5833 5833 5834 5834 5835 5835 5836 5836 5837 5838 5839 5840 5840 5841 5842 5842 5842 5843 5843 5844 5844 5844 5844 5844 5844 5844 5844 5843 5843 5843 5842 5841 5840
5818 5819 5821 5824 5825 5825 5826 5827 5828 5828 5829 5830 5830 5831 5832 5832 5833 5833 5834 5835 5836 5836 5837 5837 5838 5838 5839 5839 5839 5839 5840 5840 5840 5840 5840 5840 5840 5839 5839 5838 5838 5837 5836 5835
5813 5814 5816 5821 5821 5821 5823 5824 5825 5825 5826 5826 5827 5829 5830 5829 5830 5830 5831 5832 5833 5833 5834 5834 5834 5835 5835 5835 5835 5836 5836 5836 5836 5836 5836 5836 5835 5835 5834 5834 5833 5832 5831 5830
5807 5809 5811 5815 5816 5818 5820 5822 5822 5822 5822 5823 5824 5826 5826 5826 5827 5827 5828 5829 5829 5830 5830 5831 5831 5831 5831 5832 5832 5832 5832 5832 5832 5831 5831 5831 5830 5830 5829 5828 5827 5826 5825 5824
5802 5804 5809 5810 5812 5814 5816 5817 5817 5818 5819 5820 5821 5821 5822 5823 5823 5824 5825 5825 5826 5826 5827 5827 5827 5828 5828 5828 5828 5827 5827 5827 5827 5827 5826 5826 5825 5824 5823 5822 5822 5820 5819 5818
5797 5801 5803 5805 5807 5809 5810 5812 5813 5814 5815 5816 5817 5817 5818 5819 5819 5820 5821 5821 5822 5822 5823 5823 5823 5823 5823 5823 5823 5823 5823 5822 5822 5822 5821 5820 5820 5819 5818 5817 5816 5815 5813 5812
5790 5794 5797 5800 5802 5804 5805 5807 5808 5809 5810 5812 5812 5813 5814 5814 5815 5816 5816 5817 5817 5818 5818 5818 5819 5819 5819 5818 5818 5818 5818 5817 5817 5816 5815 5814 5814 5813 5812 5811 5810 5808 5807 5806
5784 5788 5791 5793 5796 5798 5800 5801 5803 5804 5805 5806 5808 5808 5809 5810 5811 5811 5811 5812 5812 5813 5813 5813 5813 5813 5813 5813 5813 5812 5812 5811 5811 5810 5809 5809 5808 5807 5806 5805 5803 5802 5801 5799
5778 5782 5785 5788 5790 5792 5794 5796 5797 5799 5800 5801 5802 5803 5804 5804 5805 5806 5806 5807 5807 5807 5807 5808 5808 5808 5808 5807 5807 5807 5806 5806 5805 5804 5803 5803 5802 5801 5799 5798 5797 5795 5794 5792
5770 5774 5777 5781 5783 5785 5787 5790 5791 5793 5794 5795 5796 5797 5798 5798 5799 5800 5801 5801 5801 5802 5802 5802 5802 5802 5802 5801 5801 5801 5800 5799 5799 5798 5797 5796 5795 5794 5793 5791 5789 5788 5786 5784
5762 5766 5769 5773 5775 5778 5780 5782 5784 5786 5788 5789 5790 5790 5791 5792 5793 5794 5794 5795 5795 5795 5796 5796 5796 5796 5795 5795 5795 5794 5794 5793 5792 5792 5791 5789 5788 5787 5785 5784 5782 5780 5778 5776
5754 5758 5761 5764 5767 5770 5773 5775 5777 5779 5781 5782 5783 5784 5785 5785 5786 5787 5788 5788 5789 5789 5789 5789 5789 5789 5789 5789 5788 5788 5787 5787 5786 5785 5783 5782 5780 5779 5777 5776 5774 5772 5770 5768
5746 5749 5752 5755 5759 5762 5765 5767 5769 5771 5773 5774 5776 5777 5778 5778 5779 5780 5781 5781 5782 5782 5782 5782 5782 5782 5782 5781 5781 5781 5780 5779 5778 5777 5776 5774 5773 5771 5769 5767 5765 5763 5761 5759
5736 5740 5743 5747 5750 5753 5756 5759 5761 5763 5765 5766 5768 5769 5770 5771 5772 5773 5773 5774 5774 5774 5775 5775 5775 5774 5774 5774 5773 5773 5772 5771 5770 5769 5767 5766 5764 5763 5761 5759 5757 5754 5752 5749
5727 5731 5734 5738 5741 5744 5747 5749 5752 5754 5756 5758 5759 5761 5762 5763 5764 5765 5765 5766 5766 5767 5767 5767 5767 5767 5766 5766 5765 5764 5763 5762 5761 5760 5759 5757 5756 5754 5752 5750 5747 5745 5742 5740
5717 5721 5725 5728 5731 5734 5737 5740 5742 5745 5747 5749 5750 5752 5753 5754 5755 5756 5756 5757 5758 5758 5758 5758 5758 5758 5758 5757 5756 5755 5754 5753 5752 5751 5750 5748 5747 5745 5743 5740 5738 5735 5732 5730
5708 5711 5715 5718 5721 5724 5728 5730 5733 5735 5737 5739 5741 5743 5744 5745 5746 5747 5747 5748 5749 5749 5749 5749 5749 5749 5748 5747 5746 5746 5745 5744 5743 5742 5740 5739 5737 5735 5733 5731 5728 5725 5722 5719
5698 5702 5705 5708 5711 5715 5718 5720 5723 5725 5727 5729 5731 5733 5734 5736 5737 5737 5738 5739 5739 5739 5739 5739 5739 5739 5738 5737 5737 5736 5735 5734 5733 5732 5730 5729 5727 5725 5723 5720 5718 5715 5712 5709
5688 5692 5695 5698 5701 5704 5707 5710 5713 5715 5717 5719 5721 5723 5724 5725 5726 5727 5728 5729 5729 5729 5729 5729 5729 5729 5728 5728 5727 5726 5725 5724 5723 5721 5720 5718 5716 5714 5712 5709 5707 5704 5701 5698
5679 5682 5686 5689 5691 5694 5697 5700 5703 5705 5707 5709 5711 5712 5714 5715 5716 5717 5718 5719 5719 5719 5719 5719 5719 5719 5718 5717 5717 5716 5714 5713 5712 5710 5709 5707 5705 5703 5701 5698 5695 5692 5689 5686
5668 5672 5675 5678 5681 5684 5687 5690 5692 5694 5697 5699 5700 5702 5703 5705 5706 5707 5708 5708 5708 5709 5709 5709 5708 5708 5707 5707 5706 5705 5704 5702 5701 5699 5697 5696 5694 5691 5689 5686 5683 5680 5677 5673
5658 5661 5664 5668 5671 5674 5676 5679 5681 5684 5686 5688 5689 5691 5693 5694 5695 5696 5697 5697 5698 5698 5698 5698 5697 5697 5696 5695 5695 5694 5692 5691 5690 5688 5686 5684 5682 5680 5677 5674 5671 5668 5664 5661
5648 5651 5654 5657 5661 5663 5666 5668 5670 5673 5674 5676 5678 5680 5681 5683 5684 5685 5686 5687 5687 5687 5687 5687 5686 5685 5685 5684 5683 5682 5681 5679 5678 5676 5674 5672 5670 5667 5665 5662 5659 5655 5652 5648
5637 5640 5643 5646 5649 5652 5655 5657 5659 5661 5663 5665 5667 5668 5670 5671 5673 5674 5675 5675 5676 5676 5676 5675 5675 5674 5674 5673 5672 5671 5669 5668 5666 5664 5662 5660 5658 5655 5652 5649 5646 5642 5639 5635
Wind_Speed
12 11 11 10 10 9 9 9 10 8 7 6 6 5 5 5 6 7 7 8 9 10 10 9 9 10 10 10 11 11 12 12 12 12 12 11 12 12 12 13 13 13 14 14
13 13 12 12 11 10 10 9 9 9 7 7 7 6 6 6 6 7 7 8 9 10 10 10 10 10 10 10 11 11 11 12 13 13 13 12 12 13 14 14 14 15 14 14
15 14 14 13 11 11 10 9 9 9 8 7 7 7 7 6 6 7 7 8 9 10 10 10 10 10 11 11 11 11 11 12 13 14 14 14 14 14 15 15 15 15 16 16
17 16 16 13 12 12 12 11 10 9 9 9 8 9 8 7 7 7 8 8 9 10 11 11 11 10 11 11 12 12 12 13 13 14 15 15 15 15 15 16 16 17 17 18
19 18 17 15 14 13 13 12 12 11 10 9 9 9 8 8 8 9 9 9 10 10 11 11 11 11 11 12 13 13 14 14 14 15 15 16 16 16 16 17 17 18 18 18
20 19 19 16 15 14 14 14 12 12 12 10 9 8 8 9 10 10 10 10 10 10 10 11 11 11 12 12 13 14 14 15 15 15 15 15 16 17 18 18 18 18 19 19
22 21 19 17 16 16 16 13 13 12 12 11 10 9 10 10 10 10 10 10 10 10 10 11 11 11 12 12 13 14 14 15 15 16 16 17 17 18 19 19 19 20 21 21
24 23 20 17 17 16 15 13 13 13 12 12 11 12 11 11 11 12 12 12 12 12 12 12 12 13 13 13 14 14 15 15 16 17 18 18 19 19 19 19 20 21 21 21
25 23 21 19 18 17 16 15 15 14 13 13 12 13 13 13 13 13 13 13 13 14 14 14 14 14 15 15 15 15 15 16 17 18 19 20 20 20 20 20 21 21 22 22
27 25 23 21 20 18 17 16 15 15 15 14 14 14 14 14 14 14 14 15 15 15 15 15 15 15 16 16 17 17 17 17 18 19 20 20 20 21 21 21 22 22 23 23
28 26 24 23 21 20 19 18 17 17 17 16 16 16 16 15 15 15 15 16 16 16 16 17 17 17 17 18 18 19 19 19 19 20 21 21 21 21 22 22 23 23 24 25
28 26 26 24 22 21 21 20 19 18 18 18 17 18 18 17 17 17 17 17 17 17 18 18 18 18 18 18 19 19 20 20 20 21 21 22 22 23 23 24 24 24 25 25
29 29 28 26 25 24 22 21 20 19 19 19 20 20 20 19 19 19 19 19 19 19 19 19 19 19 19 19 19 20 20 21 22 22 22 23 23 24 25 25 25 26 27 27
31 30 29 27 26 25 24 23 23 22 21 20 21 21 21 21 21 20 20 20 20 20 20 20 20 21 21 21 21 21 22 22 23 24 24 25 25 25 26 26 27 27 28 29
32 31 29 28 27 26 26 25 25 24 23 22 22 22 22 22 22 21 21 21 21 21 21 21 22 22 22 22 22 23 23 24 24 25 25 26 26 27 27 27 28 28 29 30
33 33 31 30 28 28 27 27 26 25 24 24 23 23 23 23 23 23 23 23 23 22 23 23 23 23 24 24 24 25 25 26 26 27 27 27 27 27 28 28 29 30 31 31
34 33 32 32 31 30 30 29 28 27 26 26 25 25 25 25 24 24 24 25 25 24 24 25 25 25 26 26 26 27 27 27 28 28 28 28 28 29 29 29 30 30 31 32
34 34 34 33 33 32 31 31 30 30 29 28 27 27 27 27 26 26 26 26 26 26 26 26 26 27 27 27 28 29 29 29 29 28 29 29 29 30 30 30 31 31 32 33
33 33 33 33 33 33 33 32 32 32 31 30 30 28 28 27 28 28 28 28 28 28 28 28 28 28 28 29 29 29 29 30 30 30 30 31 31 31 31 32 32 33 33 34
33 32 32 32 32 32 32 32 32 32 31 31 31 29 29 28 28 29 29 29 29 29 30 29 30 30 30 30 31 31 31 31 31 31 32 32 32 33 34 34 34 35 35 36
33 33 32 31 31 32 32 33 32 32 32 32 31 30 30 30 30 30 30 30 30 31 31 31 31 31 31 31 31 32 32 32 32 33 33 34 34 35 35 36 36 36 37 37
34 34 33 32 32 33 33 33 33 32 31 31 31 31 30 30 31 31 31 31 31 32 32 32 32 32 33 33 33 33 33 33 34 34 35 35 36 36 37 37 37 38 39 39
35 35 34 34 33 33 33 32 32 32 32 32 32 32 31 31 31 31 31 31 32 32 33 33 34 34 34 34 34 34 34 34 35 36 36 37 37 37 38 39 39 40 40 41
35 35 35 35 35 35 34 33 33 33 32 33 33 33 33 33 32 32 32 32 32 33 33 34 34 35 35 35 34 34 34 35 36 36 37 38 38 39 39 40 40 41 41 42
34 34 35 35 35 35 34 34 35 35 35 35 35 35 35 34 34 33 33 33 33 34 34 34 35 35 35 34 34 35 35 35 36 37 38 38 38 39 39 40 41 41 42 42
34 34 35 35 35 35 35 35 35 36 36 36 36 36 36 35 35 34 34 33 33 34 34 34 35 35 34 34 35 36 36 36 37 37 38 38 39 40 40 41 41 42 43 43
35 35 35 35 36 36 36 35 35 35 35 36 36 36 36 36 36 36 35 34 34 34 34 34 34 35 35 35 36 36 37 37 38 38 38 39 39 40 41 42 42 43 43 43
Wind_Direction
232 235 239 239 241 245 248 251 254 256 257 258 262 258 255 254 238 229 228 227 227 225 226 230 234 236 238 241 243 245 244 241 242 245 248 255 259 261 264 268 271 274 278 280
234 236 240 241 241 243 244 247 253 254 253 256 259 261 264 262 249 239 232 231 232 227 231 232 235 239 243 246 248 247 246 244 245 249 253 259 262 264 265 267 271 274 276 280
235 237 237 237 239 243 245 251 256 255 257 257 260 261 263 256 250 244 239 237 232 231 239 238 238 241 247 248 250 250 249 249 251 253 256 260 264 267 269 269 272 275 278 279
236 237 237 235 240 244 248 250 255 259 262 260 260 257 256 252 245 248 250 245 238 239 241 243 243 246 250 251 252 253 253 254 257 258 259 261 266 269 271 271 273 275 279 280
238 238 237 235 237 242 246 250 256 264 266 261 257 250 247 248 246 249 252 249 245 245 247 246 247 249 251 253 255 256 255 257 261 264 265 266 267 269 271 273 274 277 278 278
237 239 238 235 238 243 245 247 254 262 265 260 256 255 252 252 251 252 256 253 248 247 248 250 252 252 254 257 258 259 258 260 264 267 268 270 271 271 272 274 278 279 280 281
236 240 241 237 238 242 244 249 254 260 265 261 257 257 254 253 252 254 255 254 252 251 253 255 257 260 261 260 263 263 262 262 264 267 269 271 274 276 276 277 278 281 282 283
237 240 240 240 242 245 249 250 253 256 261 260 258 258 257 253 253 253 253 254 255 257 258 257 259 262 264 264 265 267 267 265 266 267 271 274 277 279 280 280 280 282 283 283
239 241 240 241 245 248 248 250 253 258 263 264 260 259 260 257 258 258 259 259 258 261 261 260 261 263 265 265 267 268 269 269 270 272 275 276 277 279 280 281 282 283 285 285
239 241 242 245 246 247 250 253 256 259 262 264 262 260 260 259 260 261 263 264 264 263 263 262 264 264 266 268 269 271 270 272 273 274 276 278 279 281 282 283 283 284 285 286
238 239 240 244 246 247 250 253 254 257 261 262 260 259 260 261 261 263 265 265 266 266 265 266 266 266 267 269 270 272 273 273 275 277 278 279 280 282 284 284 284 285 286 287
237 238 240 242 243 246 248 251 254 257 260 259 259 259 261 261 261 262 264 265 266 268 268 268 269 269 270 270 271 272 275 275 276 279 280 281 280 281 283 285 285 286 287 288
235 237 240 242 243 246 248 250 253 256 259 259 260 259 260 260 260 261 263 265 266 267 268 269 270 270 270 270 272 273 275 277 277 278 280 282 282 282 284 285 286 287 288 289
236 237 239 240 242 244 248 250 253 256 259 259 258 259 260 260 260 262 263 263 265 266 267 268 268 269 270 270 271 272 274 276 278 279 280 282 283 284 285 286 287 289 290 291
237 239 240 239 241 244 247 250 253 255 256 256 256 258 259 259 260 261 262 262 263 266 267 267 268 268 269 270 272 274 276 277 279 281 282 283 284 285 286 287 288 289 290 291
236 238 240 240 241 243 246 248 251 252 254 254 255 257 258 259 259 260 261 262 263 265 267 268 269 270 271 272 274 276 278 279 280 282 283 284 285 286 287 289 290 290 291 292
237 238 239 240 241 244 247 249 250 251 253 254 255 255 257 258 258 259 261 262 264 265 267 268 270 272 272 273 275 277 278 279 281 282 282 283 285 287 288 290 291 291 291 291
238 238 239 240 241 243 246 248 250 252 254 255 255 256 256 257 258 259 261 263 264 266 267 269 270 272 272 274 276 277 278 280 280 281 282 284 286 287 289 291 292 293 293 292
239 240 241 241 241 242 245 247 250 252 253 254 256 256 257 258 259 260 262 263 264 265 267 269 270 272 273 274 276 277 278 279 279 280 282 284 285 287 289 291 292 294 294 294
239 241 241 241 241 242 244 247 248 250 251 253 255 256 256 257 258 260 262 264 265 266 267 269 271 273 275 276 277 277 278 278 278 280 281 283 285 288 289 290 292 293 294 295
239 240 241 243 244 244 245 248 249 250 251 253 254 255 256 257 258 260 262 264 265 266 267 270 272 274 275 275 277 278 279 279 279 280 281 283 285 287 288 289 291 292 294 295
238 240 242 244 245 246 247 248 249 249 250 251 254 256 257 258 259 261 262 263 264 265 267 269 271 273 274 276 277 279 280 280 280 280 281 283 284 286 287 289 290 292 293 295
240 242 243 245 247 248 249 250 250 250 251 252 254 256 257 258 259 261 262 263 264 266 268 269 271 273 275 275 277 278 279 280 281 281 282 283 284 286 287 289 291 293 294 295
241 242 243 245 247 248 250 251 251 251 251 253 255 257 258 258 260 262 263 264 265 267 269 271 273 274 275 276 277 278 278 280 281 282 284 284 285 287 288 290 291 293 294 295
239 241 242 244 245 247 249 251 252 252 252 254 255 256 257 259 260 262 264 266 267 268 270 271 273 273 274 275 276 278 279 280 281 283 284 285 287 288 289 291 292 293 295 296
239 241 242 243 244 246 248 251 252 253 254 254 255 255 257 258 260 262 264 266 268 269 270 271 272 273 275 276 276 277 277 279 281 283 284 286 288 289 290 291 292 293 295 297
240 241 243 244 245 247 249 250 251 252 253 254 254 255 256 258 260 262 264 266 268 269 270 271 273 274 276 276 277 277 278 280 282 283 285 286 288 289 290 291 292 294 295 296